Location: Fazenda Monte Alegre
(4.8500°S, 38.0333°W)
Time: 17:32:25
(UTC+00:00)

ASTRO E2 - Pass Details

Date: 24 September 2020
Orbit: 509 x 515 km, 31.4° (Epoch: 24 October)

Event Time Altitude Azimuth Distance (km) Brightness Sun altitude
Rises 21:28:07 0° 287° (WNW) 2,598 7.7 -15.9°
Reaches altitude 10° 21:30:28 10° 277° (W) 1,716 6.6 -16.5°
Maximum altitude 21:34:05 34° 211° (SSW) 856 4.1 -17.4°
Enters shadow 21:36:42 16° 153° (SSE) 1,377 4.6 -18.1°
